Regional Weather Roundup
Issued by NWS

Home | Current Version | Previous Version | Text Only | Print | Product List | Glossary On
Versions: 1 2 3 4 5 6 7 8 9 10 11 12 13 14 15 16 17 18 19 20 21 22 23 24 25 26 27 28 29 30 31 32 33 34 35 36 37 38 39 40 41 42 43 44 45 46 47 48 49 50
000
ASUS43 KBIS 261910
RWRND

NORTH DAKOTA REGIONAL WEATHER ROUNDUP
NATIONAL WEATHER SERVICE BISMARCK ND
100 PM CST SUN FEB 26 2017

NOTE: "FAIR" INDICATES FEW OR NO CLOUDS BELOW 12,000 FEET WITH NO
SIGNIFICANT WEATHER AND/OR OBSTRUCTIONS TO VISIBILITY.


NDZ001>003-009>011-017-262000-
NORTHWEST NORTH DAKOTA

CITY           SKY/WX    TMP DP  RH WIND       PRES   REMARKS
WILLISTON      FAIR      22  14  71 NW6       29.77S WCI  14
MINOT          PTSUNNY   21   8  57 NW6       29.77S WCI  13
MINOT AFB      SUNNY     20  11  68 W3        29.77S
$$

NDZ018>021-031>035-040>046-262000-
SOUTHWEST NORTH DAKOTA

CITY           SKY/WX    TMP DP  RH WIND       PRES   REMARKS
BISMARCK       CLOUDY    20  13  74 E5        29.79F WCI  13
DICKINSON      CLOUDY    29  22  75 W21       29.67S WCI  16
GARRISON         N/A     18  10  71 CALM      29.77R
HETTINGER ARPT PTSUNNY   33  21  61 NW20G30   29.71F
$$

NDZ004>008-012>016-024-026-027-054-262000-
NORTHEAST NORTH DAKOTA

CITY           SKY/WX    TMP DP  RH WIND       PRES   REMARKS
GRAND FORKS    MOSUNNY   18   3  52 W9        29.85F WCI   7
GRND FRKS AFB  SUNNY     18   7  62 VRB7      29.85R WCI   8
DEVILS LAKE    FAIR      10   7  87 SW8       29.82F WCI  -2
$$

NDZ022-023-025-028>030-036>039-047>053-262000-
SOUTHEAST NORTH DAKOTA

CITY           SKY/WX    TMP DP  RH WIND       PRES   REMARKS
FARGO          SUNNY     17   9  70 NW6       29.88S WCI   9
JAMESTOWN      FAIR      20  10  65 S8        29.81S WCI  10
$$





USA.gov is the U.S. government's official web portal to all federal, state and local government web resources and services.